Location: Homewood
(41.1836°S, 175.9581°E)
Time: 03:45:29
(UTC+00:00)

Cosmos 2369 Rocket - Visible Passes

Search period start: 17 March 2026 00:00
Search period end: 27 March 2026 00:00
Orbit: 828 x 851 km, 71.0° (Epoch: 16 March)

Date Brightness Start Highest point End Pass type
(mag) Time Alt. Az. Time Alt. Az. Time Alt. Az.
19 Mar 4.6 17:33:41 10° NNE 17:38:13 26° ENE 17:42:48 10° SE visible
20 Mar 4.7 17:18:07 10° NNE 17:22:30 24° ENE 17:26:58 10° SE visible
21 Mar 4.7 17:02:34 10° NNE 17:06:49 23° E 17:11:06 10° SE visible
22 Mar 4.7 16:47:01 10° NNE 16:51:07 21° E 16:55:14 10° SE visible
23 Mar 4.7 16:31:30 10° NE 16:35:25 20° E 16:39:21 10° SE visible
24 Mar 4.8 16:16:00 10° NE 16:19:43 18° E 16:23:27 10° ESE visible
25 Mar 4.8 16:00:31 10° NE 16:04:01 17° E 16:07:33 10° ESE visible
25 Mar 2.2 17:41:47 10° NNW 17:47:22 66° WSW 17:53:03 10° SSE visible
26 Mar 4.8 15:45:04 10° NE 15:48:19 16° E 15:51:36 10° ESE visible
26 Mar 2.2 17:26:01 10° NNW 17:31:37 70° WSW 17:37:19 10° SSE visible
